TimeCDT,TemperatureF,Dew PointF,Humidity,Sea Level PressureIn,VisibilityMPH,Wind Direction,Wind SpeedMPH,Gust SpeedMPH,PrecipitationIn,Events,Conditions,WindDirDegrees,DateUTC
12:15 AM,62.6,53.6,72,30.07,10.0,Calm,Calm,-,N/A,,Clear,0,2013-07-25 05:15:00
12:35 AM,60.8,53.6,77,30.07,10.0,Calm,Calm,-,N/A,,Clear,0,2013-07-25 05:35:00
12:55 AM,60.8,53.6,77,30.07,10.0,Calm,Calm,-,N/A,,Clear,0,2013-07-25 05:55:00
1:15 AM,59.0,53.6,82,30.07,10.0,Calm,Calm,-,N/A,,Clear,0,2013-07-25 06:15:00
1:35 AM,59.0,53.6,82,30.07,10.0,Calm,Calm,-,N/A,,Clear,0,2013-07-25 06:35:00
1:55 AM,59.0,53.6,82,30.07,10.0,Calm,Calm,-,N/A,,Clear,0,2013-07-25 06:55:00
2:15 AM,57.2,53.6,88,30.07,10.0,Calm,Calm,-,N/A,,Clear,0,2013-07-25 07:15:00
2:35 AM,57.2,53.6,88,30.07,10.0,Calm,Calm,-,N/A,,Clear,0,2013-07-25 07:35:00
2:55 AM,57.2,53.6,88,30.07,10.0,Calm,Calm,-,N/A,,Clear,0,2013-07-25 07:55:00
3:15 AM,57.2,53.6,88,30.07,10.0,Calm,Calm,-,N/A,,Clear,0,2013-07-25 08:15:00
3:35 AM,57.2,53.6,88,30.07,10.0,Calm,Calm,-,N/A,,Clear,0,2013-07-25 08:35:00
3:55 AM,57.2,53.6,88,30.07,10.0,Calm,Calm,-,N/A,,Clear,0,2013-07-25 08:55:00
4:15 AM,57.2,53.6,88,30.07,10.0,Calm,Calm,-,N/A,,Clear,0,2013-07-25 09:15:00
4:35 AM,55.4,53.6,94,30.07,10.0,Calm,Calm,-,N/A,,Clear,0,2013-07-25 09:35:00
4:55 AM,55.4,53.6,94,30.09,10.0,Calm,Calm,-,N/A,,Clear,0,2013-07-25 09:55:00
5:15 AM,55.4,53.6,94,30.09,10.0,Calm,Calm,-,N/A,,Clear,0,2013-07-25 10:15:00
5:35 AM,55.4,53.6,94,30.09,10.0,Calm,Calm,-,N/A,,Clear,0,2013-07-25 10:35:00
5:55 AM,55.4,53.6,94,30.10,10.0,Calm,Calm,-,N/A,,Clear,0,2013-07-25 10:55:00
6:15 AM,55.4,51.8,88,30.11,10.0,Calm,Calm,-,N/A,,Clear,0,2013-07-25 11:15:00
6:35 AM,55.4,51.8,88,30.11,10.0,Calm,Calm,-,N/A,,Clear,0,2013-07-25 11:35:00
6:55 AM,55.4,53.6,94,30.11,10.0,Calm,Calm,-,N/A,,Clear,0,2013-07-25 11:55:00
7:15 AM,57.2,55.4,94,30.11,10.0,Calm,Calm,-,N/A,,Clear,0,2013-07-25 12:15:00
7:35 AM,59.0,53.6,82,30.11,10.0,Calm,Calm,-,N/A,,Clear,0,2013-07-25 12:35:00
7:55 AM,60.8,55.4,82,30.11,10.0,Calm,Calm,-,N/A,,Clear,0,2013-07-25 12:55:00
8:15 AM,62.6,57.2,82,30.12,10.0,Calm,Calm,-,N/A,,Clear,0,2013-07-25 13:15:00
8:35 AM,64.4,57.2,77,30.13,10.0,Calm,Calm,-,N/A,,Clear,0,2013-07-25 13:35:00
8:55 AM,66.2,55.4,68,30.14,10.0,Calm,Calm,-,N/A,,Clear,0,2013-07-25 13:55:00
9:15 AM,66.2,55.4,68,30.14,10.0,Calm,Calm,-,N/A,,Clear,0,2013-07-25 14:15:00
9:35 AM,68.0,55.4,64,30.14,10.0,Calm,Calm,-,N/A,,Clear,0,2013-07-25 14:35:00
9:55 AM,69.8,55.4,60,30.14,10.0,ENE,4.6,-,N/A,,Clear,60,2013-07-25 14:55:00
10:15 AM,71.6,55.4,57,30.14,10.0,East,6.9,-,N/A,,Clear,80,2013-07-25 15:15:00
10:35 AM,71.6,55.4,57,30.15,10.0,Calm,Calm,-,N/A,,Clear,0,2013-07-25 15:35:00
10:55 AM,73.4,55.4,53,30.16,10.0,NNE,4.6,-,N/A,,Clear,20,2013-07-25 15:55:00
11:15 AM,73.4,55.4,53,30.16,10.0,ENE,4.6,-,N/A,,Scattered Clouds,60,2013-07-25 16:15:00
11:35 AM,73.4,53.6,50,30.16,10.0,North,10.4,-,N/A,,Partly Cloudy,350,2013-07-25 16:35:00
11:55 AM,75.2,55.4,50,30.16,10.0,Calm,Calm,-,N/A,,Scattered Clouds,0,2013-07-25 16:55:00
12:15 PM,75.2,53.6,47,30.15,10.0,NE,8.1,-,N/A,,Partly Cloudy,50,2013-07-25 17:15:00
12:35 PM,75.2,55.4,50,30.16,10.0,ENE,9.2,-,N/A,,Partly Cloudy,60,2013-07-25 17:35:00
12:55 PM,75.2,55.4,50,30.15,10.0,NE,3.5,-,N/A,,Partly Cloudy,50,2013-07-25 17:55:00
1:15 PM,75.2,55.4,50,30.15,10.0,North,9.2,-,N/A,,Clear,10,2013-07-25 18:15:00
1:35 PM,77.0,55.4,47,30.14,10.0,North,5.8,-,N/A,,Clear,350,2013-07-25 18:35:00
1:55 PM,77.0,55.4,47,30.13,10.0,NW,6.9,-,N/A,,Clear,320,2013-07-25 18:55:00
2:15 PM,77.0,55.4,47,30.13,10.0,North,6.9,-,N/A,,Partly Cloudy,360,2013-07-25 19:15:00
2:35 PM,77.0,55.4,47,30.13,10.0,NW,4.6,-,N/A,,Partly Cloudy,310,2013-07-25 19:35:00
2:55 PM,78.8,55.4,44,30.13,10.0,North,6.9,-,N/A,,Clear,10,2013-07-25 19:55:00
3:15 PM,78.8,55.4,44,30.13,10.0,North,3.5,-,N/A,,Partly Cloudy,360,2013-07-25 20:15:00
3:35 PM,78.8,55.4,44,30.12,10.0,NE,8.1,-,N/A,,Partly Cloudy,50,2013-07-25 20:35:00
3:55 PM,78.8,55.4,44,30.12,10.0,NE,5.8,-,N/A,,Clear,50,2013-07-25 20:55:00
4:15 PM,78.8,55.4,44,30.12,10.0,NE,8.1,-,N/A,,Clear,50,2013-07-25 21:15:00
4:35 PM,78.8,57.2,47,30.11,10.0,NNW,3.5,-,N/A,,Clear,340,2013-07-25 21:35:00
4:55 PM,78.8,55.4,44,30.12,10.0,NNE,6.9,-,N/A,,Clear,30,2013-07-25 21:55:00
5:15 PM,80.6,55.4,42,30.11,10.0,Calm,Calm,-,N/A,,Clear,0,2013-07-25 22:15:00
5:35 PM,78.8,55.4,44,30.11,10.0,NE,5.8,-,N/A,,Clear,50,2013-07-25 22:35:00
5:55 PM,78.8,55.4,44,30.11,10.0,Calm,Calm,-,N/A,,Partly Cloudy,0,2013-07-25 22:55:00
6:15 PM,78.8,55.4,44,30.11,10.0,NW,4.6,-,N/A,,Partly Cloudy,310,2013-07-25 23:15:00
6:35 PM,78.8,55.4,44,30.11,10.0,Calm,Calm,-,N/A,,Clear,0,2013-07-25 23:35:00
6:55 PM,78.8,57.2,47,30.11,10.0,ESE,5.8,-,N/A,,Clear,110,2013-07-25 23:55:00
7:15 PM,77.0,57.2,50,30.11,10.0,East,3.5,-,N/A,,Clear,80,2013-07-26 00:15:00
7:35 PM,75.2,57.2,53,30.10,10.0,East,3.5,-,N/A,,Clear,80,2013-07-26 00:35:00
7:55 PM,73.4,57.2,57,30.10,10.0,Calm,Calm,-,N/A,,Clear,0,2013-07-26 00:55:00
8:15 PM,73.4,57.2,57,30.10,10.0,Calm,Calm,-,N/A,,Clear,0,2013-07-26 01:15:00
8:35 PM,71.6,57.2,60,30.10,10.0,ESE,3.5,-,N/A,,Clear,120,2013-07-26 01:35:00
8:55 PM,71.6,57.2,60,30.10,10.0,Calm,Calm,-,N/A,,Clear,0,2013-07-26 01:55:00
9:15 PM,69.8,57.2,64,30.10,10.0,Calm,Calm,-,N/A,,Clear,0,2013-07-26 02:15:00
9:35 PM,68.0,57.2,68,30.09,10.0,Calm,Calm,-,N/A,,Clear,0,2013-07-26 02:35:00
9:55 PM,66.2,57.2,73,30.11,10.0,Calm,Calm,-,N/A,,Clear,0,2013-07-26 02:55:00
10:15 PM,64.4,60.8,88,30.11,10.0,Calm,Calm,-,N/A,,Clear,0,2013-07-26 03:15:00
10:35 PM,64.4,59.0,83,30.12,10.0,Calm,Calm,-,N/A,,Clear,0,2013-07-26 03:35:00
10:55 PM,64.4,57.2,77,30.12,10.0,Calm,Calm,-,N/A,,Clear,0,2013-07-26 03:55:00
11:15 PM,62.6,57.2,82,30.12,10.0,Calm,Calm,-,N/A,,Clear,0,2013-07-26 04:15:00
11:35 PM,62.6,59.0,88,30.12,10.0,Calm,Calm,-,N/A,,Clear,0,2013-07-26 04:35:00
11:55 PM,62.6,60.8,94,30.11,10.0,Calm,Calm,-,N/A,,Clear,0,2013-07-26 04:55:00